When you browse on this site, cookies collect data to enhance your experience and personalize the content and advertising you see.
Visit our Privacy Policy to learn more. By continuing to use the site, you agree to this use of cookies and data.

Hourly Weather Allschwil

Today, 12 August, Wednesday

Time Temperature Precipitation Wind Pressure Humidity
00:00 +23°C° 0.2 mm 1 mps 735 mmHg 83%
01:00 +21°C° 0 mm 0 mps 735 mmHg 81%
02:00 +22°C° 0 mm 1 mps 735 mmHg 83%
03:00 +22°C° 0 mm 1 mps 735 mmHg 85%
04:00 +22°C° 0 mm 1 mps 734 mmHg 87%
05:00 +22°C° 0 mm 1 mps 734 mmHg 86%
06:00 +21°C° 0 mm 0 mps 734 mmHg 85%
07:00 +24°C° 0 mm 1 mps 735 mmHg 84%
08:00 +26°C° 0.1 mm 1 mps 735 mmHg 77%
09:00 +28°C° 0.1 mm 1 mps 735 mmHg 70%
10:00 +29°C° 0.1 mm 1 mps 735 mmHg 64%
11:00 +31°C° 0 mm 1 mps 735 mmHg 58%
12:00 +32°C° 0 mm 1 mps 735 mmHg 53%
13:00 +34°C° 0 mm 1 mps 735 mmHg 47%
14:00 +34°C° 0.1 mm 1 mps 734 mmHg 47%
15:00 +34°C° 0.1 mm 1 mps 734 mmHg 47%
16:00 +34°C° 0.1 mm 1 mps 734 mmHg 46%
17:00 +30°C° 1.8 mm 1 mps 734 mmHg 59%
18:00 +27°C° 1.8 mm 1 mps 734 mmHg 72%
19:00 +23°C° 1.8 mm 1 mps 734 mmHg 85%
20:00 +22°C° 0.3 mm 1 mps 734 mmHg 86%
21:00 +21°C° 0.3 mm 2 mps 734 mmHg 88%
22:00 +20°C° 0.3 mm 2 mps 734 mmHg 89%
23:00 +21°C° 0 mm 1 mps 734 mmHg 87%

Tomorrow, 13 August, Thursday

Time Temperature Precipitation Wind Pressure Humidity
00:00 +21°C° 0 mm 1 mps 734 mmHg 86%
01:00 +21°C° 0 mm 1 mps 734 mmHg 84%
02:00 +21°C° 0 mm 1 mps 734 mmHg 84%
03:00 +21°C° 0 mm 1 mps 734 mmHg 84%
04:00 +21°C° 0 mm 1 mps 734 mmHg 83%
05:00 +21°C° 0 mm 1 mps 734 mmHg 82%
06:00 +22°C° 0 mm 1 mps 734 mmHg 81%
07:00 +22°C° 0 mm 1 mps 734 mmHg 80%
08:00 +24°C° 0 mm 1 mps 734 mmHg 72%
09:00 +27°C° 0 mm 1 mps 735 mmHg 63%
10:00 +29°C° 0 mm 1 mps 735 mmHg 55%
11:00 +29°C° 0 mm 1 mps 735 mmHg 52%
12:00 +30°C° 0 mm 2 mps 735 mmHg 50%
13:00 +31°C° 0 mm 2 mps 735 mmHg 47%
14:00 +30°C° 0.1 mm 2 mps 734 mmHg 47%
15:00 +30°C° 0.1 mm 2 mps 734 mmHg 48%
16:00 +30°C° 0.1 mm 1 mps 734 mmHg 48%
17:00 +28°C° 0.6 mm 1 mps 734 mmHg 60%
18:00 +26°C° 0.6 mm 1 mps 734 mmHg 72%
19:00 +23°C° 0.6 mm 1 mps 734 mmHg 84%
20:00 +22°C° 1.3 mm 1 mps 734 mmHg 86%
21:00 +22°C° 1.3 mm 1 mps 735 mmHg 88%
22:00 +20°C° 1.3 mm 2 mps 735 mmHg 90%
23:00 +21°C° 0.3 mm 1 mps 735 mmHg 91%

Day after tomorrow, 14 August, Friday

Time Temperature Precipitation Wind Pressure Humidity
00:00 +21°C° 0.3 mm 1 mps 735 mmHg 91%
01:00 +21°C° 0.3 mm 1 mps 735 mmHg 92%
02:00 +20°C° 0 mm 1 mps 735 mmHg 92%
03:00 +20°C° 0 mm 1 mps 735 mmHg 93%
04:00 +19°C° 0 mm 1 mps 734 mmHg 94%
05:00 +20°C° 0 mm 1 mps 735 mmHg 93%
06:00 +20°C° 0 mm 1 mps 735 mmHg 93%
07:00 +20°C° 0 mm 1 mps 735 mmHg 92%
08:00 +21°C° 0 mm 2 mps 735 mmHg 84%
09:00 +23°C° 0 mm 2 mps 735 mmHg 76%
10:00 +25°C° 0 mm 2 mps 735 mmHg 68%
11:00 +26°C° 0 mm 2 mps 735 mmHg 64%
12:00 +26°C° 0 mm 2 mps 735 mmHg 61%
13:00 +27°C° 0 mm 3 mps 734 mmHg 57%
14:00 +27°C° 0.1 mm 3 mps 734 mmHg 59%
15:00 +27°C° 0.1 mm 3 mps 734 mmHg 61%
16:00 +27°C° 0.1 mm 3 mps 734 mmHg 63%
17:00 +25°C° 0.4 mm 3 mps 734 mmHg 71%
18:00 +24°C° 0.4 mm 2 mps 734 mmHg 78%
19:00 +23°C° 0.4 mm 1 mps 734 mmHg 85%
20:00 +22°C° 0.2 mm 1 mps 734 mmHg 86%
21:00 +21°C° 0.2 mm 1 mps 735 mmHg 88%
22:00 +18°C° 0.2 mm 0 mps 735 mmHg 89%
23:00 +17°C° 0 mm 0 mps 735 mmHg 89%

15 August, Saturday

Time Temperature Precipitation Wind Pressure Humidity
00:00 +17°C° 0 mm 0 mps 735 mmHg 89%
01:00 +17°C° 0 mm 0 mps 735 mmHg 89%
02:00 +16°C° 0 mm 0 mps 735 mmHg 90%
03:00 +16°C° 0 mm 0 mps 734 mmHg 90%
04:00 +16°C° 0 mm 0 mps 734 mmHg 90%
05:00 +17°C° 0 mm 0 mps 734 mmHg 89%
06:00 +17°C° 0 mm 0 mps 734 mmHg 88%
07:00 +18°C° 0 mm 0 mps 734 mmHg 88%
08:00 +20°C° 0 mm 0 mps 735 mmHg 81%
09:00 +22°C° 0 mm 0 mps 735 mmHg 74%
10:00 +24°C° 0 mm 0 mps 735 mmHg 67%
11:00 +27°C° 0 mm 1 mps 734 mmHg 63%
12:00 +28°C° 0 mm 1 mps 734 mmHg 58%
13:00 +29°C° 0 mm 1 mps 734 mmHg 54%
14:00 +29°C° 0 mm 1 mps 734 mmHg 54%
15:00 +29°C° 0 mm 1 mps 734 mmHg 54%
16:00 +29°C° 0 mm 1 mps 733 mmHg 53%
17:00 +28°C° 0 mm 1 mps 733 mmHg 60%
18:00 +26°C° 0 mm 1 mps 733 mmHg 67%
19:00 +25°C° 0 mm 1 mps 733 mmHg 74%
20:00 +24°C° 0 mm 1 mps 733 mmHg 78%
21:00 +22°C° 0 mm 1 mps 733 mmHg 81%
22:00 +19°C° 0 mm 0 mps 734 mmHg 85%
23:00 +19°C° 0 mm 0 mps 733 mmHg 86%

16 August, Sunday

Time Temperature Precipitation Wind Pressure Humidity
00:00 +18°C° 0 mm 0 mps 733 mmHg 87%
01:00 +18°C° 0 mm 0 mps 733 mmHg 88%
02:00 +17°C° 0 mm 0 mps 733 mmHg 89%
03:00 +17°C° 0 mm 0 mps 733 mmHg 89%
04:00 +19°C° 0 mm 1 mps 733 mmHg 90%
05:00 +19°C° 0 mm 1 mps 733 mmHg 89%
06:00 +20°C° 0 mm 1 mps 733 mmHg 87%
07:00 +21°C° 0 mm 1 mps 733 mmHg 86%
08:00 +23°C° 0 mm 1 mps 733 mmHg 78%
09:00 +25°C° 0 mm 1 mps 733 mmHg 69%
10:00 +28°C° 0 mm 1 mps 733 mmHg 61%
11:00 +29°C° 0 mm 1 mps 733 mmHg 55%
12:00 +30°C° 0 mm 1 mps 733 mmHg 49%
13:00 +31°C° 0 mm 1 mps 733 mmHg 42%
14:00 +31°C° 0 mm 1 mps 733 mmHg 42%
15:00 +31°C° 0 mm 1 mps 733 mmHg 41%
16:00 +31°C° 0 mm 1 mps 732 mmHg 40%
17:00 +29°C° 0 mm 1 mps 732 mmHg 48%
18:00 +28°C° 0 mm 1 mps 732 mmHg 55%
19:00 +24°C° 0 mm 0 mps 732 mmHg 62%
20:00 +25°C° 0 mm 1 mps 732 mmHg 62%
21:00 +24°C° 0 mm 1 mps 732 mmHg 62%
22:00 +23°C° 0 mm 1 mps 732 mmHg 62%
23:00 +22°C° 0 mm 1 mps 732 mmHg 64%

17 August, Monday

Time Temperature Precipitation Wind Pressure Humidity
00:00 +22°C° 0 mm 1 mps 732 mmHg 65%
01:00 +21°C° 0 mm 1 mps 732 mmHg 66%
02:00 +21°C° 0 mm 1 mps 732 mmHg 68%
03:00 +20°C° 0 mm 1 mps 732 mmHg 70%
04:00 +20°C° 0 mm 1 mps 732 mmHg 72%
05:00 +20°C° 0 mm 1 mps 732 mmHg 74%
06:00 +21°C° 0 mm 1 mps 732 mmHg 77%
07:00 +21°C° 0 mm 1 mps 732 mmHg 79%
08:00 +21°C° 0.2 mm 2 mps 732 mmHg 80%
09:00 +21°C° 0.2 mm 2 mps 732 mmHg 82%
10:00 +23°C° 0.2 mm 2 mps 733 mmHg 83%
11:00 +23°C° 0.3 mm 2 mps 732 mmHg 83%
12:00 +23°C° 0.3 mm 2 mps 732 mmHg 84%
13:00 +23°C° 0.3 mm 2 mps 732 mmHg 84%
14:00 +24°C° 0.3 mm 2 mps 732 mmHg 79%
15:00 +26°C° 0.3 mm 1 mps 732 mmHg 74%
16:00 +27°C° 0.3 mm 1 mps 732 mmHg 68%
17:00 +25°C° 0.9 mm 1 mps 732 mmHg 74%
18:00 +24°C° 0.9 mm 1 mps 732 mmHg 79%
19:00 +23°C° 0.9 mm 1 mps 732 mmHg 85%
20:00 +22°C° 0.8 mm 1 mps 732 mmHg 86%
21:00 +21°C° 0.8 mm 1 mps 733 mmHg 87%
22:00 +20°C° 0.8 mm 1 mps 733 mmHg 89%
23:00 +20°C° 1.2 mm 1 mps 733 mmHg 89%
Show more